RH
32 33 31 32 32 32 33 58 69 40 24 20 7 5 6 7 8 13 10 5 5 5 7 13 14 19 41 39 46 100 100 100 100 100 100 100 100 100 100 100 100 100 94 84
42 36 37 35 31 31 32 39 45 42 27 25 12 10 15 22 31 38 43 35 20 12 12 15 19 50 100 70 51 100 100 100 100 100 100 100 100 100 100 100 100 100 100 99
47 42 45 40 38 31 30 33 37 37 33 29 18 16 26 52 78 50 96 100 98 98 25 18 23 56 80 76 100 100 100 100 100 100 100 100 100 100 100 100 100 100 100 100
47 54 48 43 43 36 33 34 34 32 35 28 44 29 23 48 87 84 100 100 100 66 22 21 30 31 70 87 100 100 100 100 100 100 100 99 98 100 100 100 100 100 100 100
56 47 54 53 48 48 34 34 33 32 30 30 48 39 40 23 65 100 100 100 100 78 27 28 34 47 100 100 100 97 100 100 100 100 100 100 100 100 100 100 100 100 100 100
63 62 58 53 56 47 46 40 36 35 33 37 39 93 95 46 38 61 100 100 100 68 28 29 33 99 99 100 100 100 100 100 100 100 100 100 100 100 100 100 100 100 100 100
82 82 68 68 65 54 43 47 41 39 38 35 40 50 100 100 95 56 64 80 100 53 33 32 40 100 100 100 100 100 100 100 100 100 100 100 100 100 100 100 100 100 100 100
98 96 86 86 76 72 52 48 46 42 40 40 39 43 68 82 95 100 95 68 76 76 38 41 47 59 59 100 100 100 100 100 100 100 100 100 100 100 100 100 100 100 100 100
90 96 100 100 97 82 64 57 54 48 49 52 44 43 48 47 65 66 98 100 90 78 44 53 52 84 78 99 100 100 100 100 100 100 100 100 100 100 100 80 100 100 84 93
91 100 100 100 100 100 81 69 60 56 49 51 47 50 49 51 58 47 55 86 100 78 49 46 81 95 73 100 100 100 100 100 100 100 100 100 100 100 100 100 100 100 100 100
100 100 100 100 100 100 99 84 69 64 58 53 50 52 51 48 54 59 68 61 100 100 64 44 97 100 100 100 100 100 100 100 100 100 100 100 100 100 100 100 100 100 100 100
100 100 100 100 100 100 100 100 90 66 67 65 59 51 54 50 46 39 52 58 61 100 100 57 47 76 100 100 100 100 100 100 100 100 100 100 100 100 100 100 100 100 100 88
96 100 100 100 100 100 100 100 91 82 73 72 68 62 56 52 52 52 40 46 50 50 100 100 100 100 100 100 100 100 100 100 100 100 100 100 100 100 100 100 100 100 100 100
100 100 100 100 100 100 100 100 97 81 85 74 79 70 64 59 51 49 55 51 41 50 68 100 100 100 100 100 100 100 100 100 100 100 100 100 100 100 100 100 100 100 100 100
100 100 100 100 100 100 100 100 100 88 84 83 82 75 70 68 65 56 46 42 50 50 54 58 68 81 100 100 100 100 100 100 100 100 100 100 100 100 100 100 100 100 100 100
100 100 100 100 100 100 100 100 100 100 100 90 89 70 68 70 63 62 63 54 42 43 49 47 65 63 73 94 100 100 100 100 100 100 100 100 100 100 100 100 100 100 100 100
100 98 100 100 100 100 100 100 100 100 100 94 85 81 69 72 69 69 66 66 61 51 39 39 45 48 55 64 59 71 97 100 100 100 100 100 100 100 100 100 100 100 100 100
98 92 100 100 100 100 100 100 100 100 100 100 97 91 85 82 82 83 85 81 82 74 73 60 44 36 38 44 43 47 57 55 68 98 100 100 100 100 100 100 100 100 100 100
93 100 100 100 100 100 100 100 100 100 100 100 100 98 98 93 90 89 87 83 91 91 90 91 84 73 56 42 34 38 46 41 48 48 51 60 88 100 100 100 100 100 100 94
100 96 85 100 100 100 100 100 100 100 100 100 100 100 100 100 100 94 92 96 99 93 99 96 90 84 77 65 51 36 26 24 34 37 38 37 41 47 69 89 94 92 95 99
100 100 100 100 100 100 100 100 100 100 100 96 100 100 100 100 100 99 100 100 100 100 95 94 88 83 75 67 55 40 29 20 17 17 24 30 29 30 31 36 44 65 79 80
100 100 100 95 100 100 100 100 100 100 96 99 100 100 100 100 100 100 95 100 100 100 100 95 93 89 73 48 33 29 24 20 18 15 14 13 16 22 23 21 22 26 32 36
100 100 100 100 100 100 94 100 100 100 100 100 100 100 100 100 98 96 100 100 100 99 94 92 82 64 39 24 20 18 18 18 17 16 15 13 12 11 10 14 18 17 15 16
100 100 97 96 100 100 100 100 100 100 100 100 91 99 100 100 99 100 100 100 100 100 93 67 40 24 20 18 17 16 16 16 15 15 14 13 12 12 12 11 11 11 11 11
100 97 100 99 100 100 100 100 100 99 94 95 99 99 100 100 100 100 100 98 92 71 45 25 20 19 18 16 13 10 7 6 6 6 6 6 7 8 9 9 9 9 9 10
100 100 100 99 100 100 100 97 96 99 100 100 100 100 100 100 100 94 86 67 44 24 20 19 18 15 11 8 7 6 5 4 4 4 4 4 4 4 4 4 5 5 6 8
Wind_Speed
65 63 64 58 55 48 46 45 50 56 52 54 42 29 19 10 6 10 14 25 34 50 67 69 74 76 61 71 75 75 53 77 76 80 82 81 79 77 76 75 73 71 70 71
74 70 67 68 64 58 57 54 53 57 54 55 44 23 13 8 11 19 21 23 30 40 64 71 77 78 74 71 67 62 82 79 71 76 82 82 80 77 74 75 74 73 72 72
77 76 75 72 71 67 60 60 57 55 54 56 45 22 10 17 20 22 30 26 33 44 66 74 83 90 83 77 66 60 53 64 64 69 72 77 79 79 77 75 76 77 75 73
76 79 78 75 74 71 69 62 59 56 53 56 43 18 16 17 27 36 32 19 20 43 72 75 80 80 72 87 83 64 60 64 66 70 68 68 73 76 80 80 78 77 77 75
72 75 81 82 78 74 71 70 65 58 55 56 51 31 19 8 27 45 28 19 20 43 71 75 80 80 77 79 75 74 64 54 54 63 66 65 73 74 72 75 77 77 78 77
71 73 75 80 80 77 71 70 68 64 60 52 53 27 16 6 3 34 41 25 20 51 73 76 81 85 75 67 69 68 63 56 45 59 63 64 65 72 79 73 70 74 75 78
69 71 73 75 78 77 75 69 65 66 63 55 47 43 11 6 7 18 35 35 31 51 73 75 79 92 78 72 72 74 67 63 55 58 62 58 67 65 69 74 72 68 68 67
66 70 71 73 75 77 75 72 64 62 64 60 47 43 36 20 5 20 28 36 44 41 72 75 74 89 88 93 89 77 69 66 65 62 76 79 73 75 68 68 72 74 75 75
62 66 69 69 71 73 74 73 68 61 60 60 55 43 39 34 21 10 28 39 40 44 77 75 74 87 91 92 84 78 73 67 70 69 76 76 77 75 75 72 74 73 79 79
61 63 67 67 67 70 71 70 67 63 56 53 52 51 37 35 36 25 14 16 40 45 68 71 74 79 86 90 91 89 79 72 73 73 76 78 81 77 77 72 74 75 75 76
60 58 64 69 68 68 69 68 66 61 58 52 49 49 48 33 27 27 21 18 24 49 56 72 78 85 90 87 85 80 80 79 74 78 78 78 79 80 78 78 76 79 78 80
60 54 63 66 67 66 67 67 67 63 59 54 49 45 45 44 31 24 22 23 25 38 50 62 69 78 86 84 85 80 88 89 89 87 88 88 85 86 85 83 83 86 88 88
60 59 64 64 69 67 66 66 69 63 61 57 51 48 44 42 40 32 23 23 32 38 50 57 70 76 85 89 90 92 89 92 91 93 95 96 93 92 92 88 90 88 88 87
58 62 64 60 68 68 67 64 68 66 62 60 56 53 47 44 42 36 32 24 26 42 51 62 67 75 84 90 90 91 94 99 101 105 106 102 103 103 103 99 97 100 99 98
61 63 63 62 65 68 67 65 67 66 65 63 59 59 52 48 46 45 39 33 27 29 46 62 71 77 83 88 91 99 102 103 104 106 110 110 109 113 112 108 109 107 110 105
62 62 66 66 69 69 67 67 66 67 66 66 66 65 61 56 50 50 47 50 44 29 30 48 67 80 86 91 97 100 105 112 111 111 116 120 117 118 120 120 122 121 119 120
62 64 62 65 70 72 70 69 68 69 68 69 72 72 69 67 60 58 57 59 61 56 46 39 46 61 79 87 98 104 110 114 116 120 124 124 124 122 123 124 124 122 122 121
72 65 63 64 70 74 72 69 71 70 70 74 76 75 75 75 72 66 63 66 68 67 66 65 57 54 57 66 85 99 107 116 121 126 128 130 133 134 133 133 134 133 133 132
69 70 74 78 77 74 70 71 71 69 70 77 77 79 79 78 80 73 71 73 73 74 74 76 77 76 73 70 71 74 86 105 119 125 133 136 138 140 143 142 143 142 141 140
73 75 73 72 75 74 71 72 74 74 74 78 78 80 83 81 85 79 80 80 82 83 83 87 88 88 86 83 83 82 82 84 96 113 129 133 140 146 149 153 151 153 152 149
76 79 78 73 75 74 75 77 77 79 80 81 80 83 85 87 87 87 87 87 89 91 95 97 98 97 95 93 93 92 91 89 91 95 106 122 134 139 145 152 155 160 161 160
76 78 77 75 76 75 77 81 83 84 86 86 86 89 91 92 90 91 93 96 98 101 106 108 106 105 103 100 98 96 92 91 92 93 95 101 113 127 136 141 146 153 160 163
82 81 77 77 80 81 81 81 84 89 90 90 91 94 95 94 95 97 102 104 106 110 113 111 110 110 108 102 96 91 89 90 91 93 95 97 99 102 109 124 137 141 144 150
79 83 81 81 81 84 85 86 91 91 92 93 96 99 100 101 102 106 109 111 113 114 114 115 112 109 104 98 95 92 92 93 94 96 97 98 99 101 104 106 110 118 132 138
82 82 85 84 84 86 88 90 92 97 97 99 102 104 104 108 111 113 116 115 114 115 114 111 105 101 99 99 98 94 90 89 90 90 92 94 97 100 102 105 106 107 111 113
83 86 86 86 87 87 87 92 96 97 100 106 108 109 110 114 117 117 115 116 116 113 108 104 103 101 98 94 90 86 83 82 81 82 83 85 87 88 91 95 100 103 105 107
Wind_Direction
14 14 17 15 11 4 358 349 343 349 353 355 354 347 344 336 252 166 194 195 192 193 190 192 192 194 200 204 202 198 227 224 223 227 228 228 230 234 236 239 241 243 243 245
15 14 14 14 14 11 8 1 353 354 357 5 2 358 2 83 141 138 137 142 161 175 186 188 185 184 182 195 203 210 223 224 222 229 230 231 231 232 237 241 242 244 245 246
14 13 15 13 12 13 12 10 2 357 357 10 9 2 7 125 131 133 123 120 145 163 181 187 185 187 190 180 175 192 207 223 224 229 232 232 234 235 235 238 241 243 245 247
10 11 12 12 12 12 13 13 9 2 0 10 15 20 13 152 133 122 113 131 195 187 180 185 188 190 188 187 191 196 200 224 227 232 235 235 236 238 239 240 241 245 247 247
6 9 10 9 10 10 11 15 14 10 5 8 22 29 20 335 140 131 132 148 169 182 179 186 186 190 183 186 190 197 204 213 226 224 231 236 236 235 237 239 240 243 245 247
1 4 7 7 6 8 9 10 15 15 12 11 17 13 28 8 359 165 164 166 192 180 183 188 187 180 179 182 189 198 202 203 200 218 225 233 238 237 237 239 240 240 242 246
358 359 0 2 3 5 6 8 11 16 17 15 9 23 41 352 260 216 186 189 195 188 186 190 191 186 186 188 197 199 210 213 206 211 214 223 228 233 238 238 241 245 243 243
352 355 356 358 360 1 3 5 7 10 17 20 12 6 15 16 276 257 247 220 207 194 188 192 196 195 199 202 206 216 214 218 214 217 220 225 228 233 236 235 235 238 238 239
348 349 352 353 354 356 359 1 3 4 11 18 19 10 355 359 5 346 242 249 250 204 191 196 196 197 200 204 209 214 212 214 218 219 225 229 229 233 239 241 240 240 242 243
346 344 348 350 348 351 353 357 360 360 1 7 14 16 8 348 346 343 322 273 248 234 200 199 199 197 203 205 211 215 214 214 215 221 226 228 230 231 234 237 237 240 238 238
341 339 341 345 345 345 348 350 355 356 356 355 3 12 12 8 336 330 305 284 247 234 216 204 200 199 202 207 211 212 214 217 219 225 224 226 231 234 235 238 238 239 237 235
336 335 335 341 341 341 343 345 347 351 351 351 349 356 3 6 358 324 305 267 237 228 222 217 212 211 208 213 219 220 222 224 225 228 230 231 235 234 234 236 239 243 245 247
332 333 329 333 337 337 337 339 340 344 347 347 346 342 347 351 2 352 318 285 246 223 214 214 214 214 215 220 225 227 228 229 230 233 235 234 235 234 237 238 239 242 244 248
322 325 330 324 331 332 332 331 335 336 339 341 341 341 334 338 340 348 348 322 278 246 224 215 218 221 221 223 226 227 228 231 234 233 234 235 238 237 238 240 242 243 244 247
315 315 327 319 323 327 325 325 328 329 330 333 334 334 334 329 328 331 330 333 323 277 251 238 231 228 227 230 232 233 232 232 235 234 235 238 241 241 241 242 242 244 244 246
313 316 316 315 316 322 321 320 322 322 323 327 328 328 326 327 323 325 325 326 322 307 275 254 246 242 238 237 236 235 235 235 236 238 238 238 240 242 244 246 247 247 248 249
312 309 311 308 312 315 318 316 317 318 318 322 324 324 323 324 323 322 322 322 321 316 303 269 254 251 250 248 246 242 240 239 239 239 239 239 241 241 242 243 245 244 246 247
312 312 309 307 305 310 315 312 312 315 315 316 319 320 320 320 321 318 317 316 316 314 311 307 294 271 259 253 253 250 249 246 245 244 244 243 243 243 243 244 245 245 246 247
314 309 307 306 304 308 311 308 309 311 312 312 314 314 315 315 316 316 312 313 311 309 307 305 303 299 292 282 270 259 254 253 250 248 246 246 245 245 244 244 244 244 245 245
303 307 309 306 305 308 307 306 307 309 310 310 308 310 313 312 311 311 311 309 308 307 305 304 301 299 296 291 286 280 270 260 252 252 250 248 247 246 245 245 245 245 245 246
299 300 306 305 304 306 305 303 304 306 308 309 306 307 310 309 309 309 309 307 305 305 305 304 302 299 297 293 290 286 281 275 267 258 251 250 251 250 248 247 247 246 246 246
302 304 302 305 304 304 303 303 303 304 307 307 306 308 309 309 308 308 308 308 306 304 303 302 300 298 297 294 291 287 283 278 273 269 263 256 251 250 251 252 250 249 248 248
301 304 305 301 304 304 305 303 302 304 306 306 306 307 308 307 308 308 308 306 303 302 302 301 300 299 297 294 290 285 282 278 274 270 267 264 261 256 252 250 250 252 253 252
298 299 303 302 301 302 304 302 301 303 305 304 305 308 308 308 308 307 305 304 303 303 301 300 299 298 296 292 289 285 281 278 274 271 268 265 263 261 259 256 253 251 251 253
301 300 303 302 302 302 302 301 301 302 304 306 307 307 308 308 306 306 305 305 303 302 301 301 300 297 294 292 289 286 283 279 275 271 268 266 263 261 260 259 258 256 254 252
301 301 302 302 302 301 301 301 303 304 305 306 307 308 308 306 306 306 305 304 304 304 303 301 300 298 295 293 290 287 283 280 276 273 270 267 265 263 261 260 260 259 256 255